Tracking 19908 objects as of 18-Oct-2019
HD Live streaming from Space Station
objects crossing your sky now

IRIDIUM 33 DEB

Track IRIDIUM 33 DEB now!
10-day predictions


NORAD ID: 35624
Int'l Code: 1997-051QW
Perigee: 646.3 km
Apogee: 697.5 km
Inclination: 86.4 °
Period: 98.0 minutes
Semi major axis: 7042 km
RCS: 0.0072 m2 (small)
Launch date: September 14, 1997
Source: United States (US)
Launch site: TYURATAM MISSILE AND SPACE COMPLEX (TTMTR)

Note: This is SATELLITE DEBRIS
aabbcc
Your satellite tracking list
Your tracking list is empty




NASA's NSSDC Master Catalog

Two Line Element Set (TLE):
1 35624U 97051QW  19290.86392923  .00003898  00000-0  65711-3 0  9996
2 35624  86.3555 260.6569 0036341 217.2090 142.6607 14.68840138553468
Source of the keplerian elements: AFSPC